Regional Weather Roundup
Issued by NWS

Home | Current Version | Previous Version | Text Only | Print | Product List | Glossary On
Versions: 1 2 3 4 5 6 7 8 9 10 11 12 13 14 15 16 17 18 19 20 21 22 23 24 25 26 27 28 29 30 31 32 33 34 35 36 37 38 39 40 41 42 43 44 45 46 47 48 49 50
000
ASUS43 KOAX 240110
RWRNE

WEATHER ROUNDUP FOR NEBRASKA
NATIONAL WEATHER SERVICE OMAHA NE
800 PM CDT SUN JUL 23 2017

NOTES: SATELLITE DATA IS BEING USED TO AUGMENT CLOUD COVER ABOVE
       12000 FEET.
       "FAIR" INDICATES FEW OR NO CLOUDS BELOW 12,000 FEET WITH NO
       SIGNIFICANT WEATHER AND/OR OBSTRUCTIONS TO VISIBILITY.


NEZ001>004-019>022-054>056-240200-
NEBRASKA PANHANDLE

CITY           SKY/WX    TMP DP  RH WIND       PRES   REMARKS
SCOTTSBLUFF    MOSUNNY   88  53  30 E10       29.99F
ALLIANCE       SUNNY     92  41  17 S9        30.00F
CHADRON        MOSUNNY   93  49  22 SE10      29.94F HX  90
GORDON         FAIR      87  56  35 E8        29.99F
KIMBALL        MOSUNNY   87  44  22 SE13      30.08F
SIDNEY         SUNNY     89  42  19 S12       30.06F
$$

NEZ057>060-069>072-079>082-240200-
SOUTHWEST NEBRASKA

CITY           SKY/WX    TMP DP  RH WIND       PRES   REMARKS
NORTH PLATTE   SUNNY     85  63  47 SE9       29.98S
IMPERIAL       SUNNY     91  46  21 S8        30.00S
LEXINGTON      SUNNY     82  65  57 E8        29.99S
MCCOOK         SUNNY     90  56  31 SE8       29.97F
OGALLALA       SUNNY     93  47  20 S6        29.99F
$$

NEZ005>010-023>029-035>040-094-240200-
NORTH CENTRAL NEBRASKA

CITY           SKY/WX    TMP DP  RH WIND       PRES   REMARKS
VALENTINE      SUNNY     90  47  22 E14       29.98F
AINSWORTH      SUNNY     82  60  46 E8        30.01S
BROKEN BOW     SUNNY     84  59  42 E10       29.99F
O`NEILL        CLEAR     80  63  55 E5        30.01R
ORD            CLEAR     83  57  41 NE6       29.97F
THEDFORD       SUNNY     89  53  29 E16       30.01S
$$

NEZ041-046>049-061>064-073>077-083>087-240200-
SOUTH CENTRAL NEBRASKA

CITY           SKY/WX    TMP DP  RH WIND       PRES   REMARKS
GRAND ISLAND   CLEAR     82  65  56 NE7       29.98S
AURORA         CLEAR     80  72  76 NE3       29.97S
HASTINGS       CLEAR     82  68  62 NE8       29.99S
HEBRON         CLEAR     86  70  60 N6        29.93S HX  90
HOLDREGE       CLEAR     80  68  67 E6        29.99S
KEARNEY        CLEAR     81  68  64 E7        29.98F
YORK           CLEAR     81  68  65 NE6       29.97R
$$

NEZ011>018-030>034-042>045-240200-
NORTHEAST NEBRASKA

CITY           SKY/WX    TMP DP  RH WIND       PRES   REMARKS
NORFOLK        CLEAR     81  55  40 N12       29.97F
ALBION         CLEAR     82  61  49 NE6       29.99S
BLAIR          CLEAR     81  60  48 N7        29.94F
COLUMBUS       CLEAR     80  64  58 NE8       29.97S
FREMONT        CLEAR     81  61  50 N5        29.95F
TEKAMAH        CLEAR     81  61  50 N8        29.94S
WAYNE          CLEAR     80  59  48 N8        29.98R
$$

NEZ050>053-065>068-078-088>093-240200-
SOUTHEAST NEBRASKA

CITY           SKY/WX    TMP DP  RH WIND       PRES   REMARKS
LINCOLN        CLEAR     81  64  56 NE9       29.94S
OMAHA EPPLEY   PTCLDY    83  62  49 N8        29.92F
BEATRICE       CLEAR     83  66  55 NE9       29.93S
FALLS CITY     CLEAR     82  70  66 N7        29.90R
NEBRASKA CITY  CLEAR     80  68  67 NE5       29.93R
PLATTSMOUTH    CLEAR     80  59  49 N6        29.93S
$$

NEZ044-045-051>053-067-240200-
OMAHA AREA

CITY           SKY/WX    TMP DP  RH WIND       PRES   REMARKS
OMAHA EPPLEY   PTCLDY    83  62  49 N8        29.92F
BLAIR          CLEAR     81  60  48 N7        29.94F
FREMONT        CLEAR     81  61  50 N5        29.95F
MILLARD        CLEAR     85  62  46 CALM      29.93S
OFFUTT AFB     CLEAR     82  58  43 N8        29.92S
PLATTSMOUTH    CLEAR     80  59  49 N6        29.93S
WAHOO          FAIR      78  64  60 N5        29.95S
$$




USA.gov is the U.S. government's official web portal to all federal, state and local government web resources and services.